Find ICEYE-X7

NORAD ID: 46496 Int'l Des: 2020-068 Owner: ICEYE Country: FI Constellation: iceye operational
LEOCIRCULARRETROGRADE

实时位置

正在加载3D地球...

关于 ICEYE-X7

正在加载描述...

即将过境

Passes for default location (London). Set your location on the main map for personalized predictions.

高度历史

Loading altitude history...

两行轨道根数

1 46496U 20068L 26107.28572641 .00006581 00000-0 22802-3 0 9993
2 46496 97.7462 71.1305 0008093 167.1011 193.0437 15.30178474305476
Epoch: Apr 17, 2026 • Age: 10 hours

当前状态

高度 480.9 km
速度 7.63 km/s
星下点 -26.01°S, 144.38°E
发射日期 Sep 28, 2020
运行时间 5.5 years
类型 earth observation

技术详情

分类 Payload
质量 80.00 kg
干质量 80.00 kg
总质量 80.00 kg
长度 0.80 m
直径 0.60 m
跨度 1.50 m
形状 Box + pan
制造商 ICEYE
平台类型 ICEYE
阶段状态 In Orbit
所有者/国家 ICEYE/FI

Most Searched